This demonstration page uses our WeatherBlox Daily Observations layout. Learn more.

Left ArrowRight Arrow

41.55636, -103.73856

Hourly Observations for May 20, 2022

Temp ( °F °C ) Dew Point ( °F °C ) Humidity (%) Winds ( mph kmh ) Pressure ( in mb ) Visibility ( mi km ) Precip ( " mm )
12:58 am 00:58 Cloudy with Light Snow 34 1 33 0.3 95 95 WNW 12 19 29.56 1001 4 6 0.02 0.51
1:58 am 01:58 Cloudy with Light Snow 33 0.4 32 0 97 97 WNW 10 17 29.55 1001 3 5 0.02 0.51
2:58 am 02:58 Cloudy 33 0.7 33 0.3 97 97 W 13 20 29.58 1002 10 16 0.04 1.02
3:58 am 03:58 Cloudy with Light Rain 35 1.5 33 0.5 93 93 W 12 19 29.61 1003 10 16 0.02 0.51
4:58 am 04:58 Cloudy with Light Rain 36 2.2 33 0.7 90 90 W 13 20 29.62 1003 10 16 0.00 0.00
5:58 am 05:58 Cloudy with Light Rain 37 2.6 33 0.8 88 88 WSW 9 15 29.64 1004 10 16 0.01 0.25
6:58 am 06:58 Cloudy 37 2.5 34 0.9 89 89 SSW 14 22 29.70 1006 10 16 0.01 0.25
7:58 am 07:58 Cloudy with Light Rain 38 3.6 33 0.6 81 81 W 8 13 29.72 1007 10 16 0.01 0.25
8:58 am 08:58 Cloudy with Light Rain 38 3.6 32 0.1 78 78 NNW 13 20 29.77 1008 10 16 0.01 0.25
9:58 am 09:58 Cloudy with Light Rain 39 3.7 35 1.6 86 86 N 12 19 29.79 1009 10 16 0.02 0.51
10:58 am 10:58 Cloudy 39 3.8 32 0 77 77 NW 20 31 29.83 1010 10 16 0.00 0.00
11:58 am 11:58 Mostly Cloudy 41 5.2 30 -1.3 63 63 NW 17 28 29.85 1011 10 16 0.00 0.00
12:58 pm 12:58 Cloudy 43 5.9 26 -3.2 52 52 NW 28 44 29.87 1012 10 16 0.00 0.00
1:58 pm 13:58 Cloudy 43 6 26 -3.4 51 51 NNW 25 41 29.88 1012 10 16 0.00 0.00
2:58 pm 14:58 Cloudy 44 6.5 26 -3.5 49 49 N 23 37 29.89 1012 10 16 0.00 0.00
3:58 pm 15:58 Cloudy 43 6.2 25 -4 48 48 N 18 30 29.92 1013 10 16 0.00 0.00
4:58 pm 16:58 Mostly Cloudy 44 6.4 22 -5.6 42 42 NNW 23 37 29.93 1014 10 16 0.00 0.00
5:58 pm 17:58 Mostly Cloudy 44 6.9 21 -6.1 39 39 N 16 26 29.94 1014 10 16 0.00 0.00
6:58 pm 18:58 Mostly Sunny 44 6.6 22 -5.7 41 41 N 16 26 29.97 1015 10 16 0.00 0.00
7:58 pm 19:58 Partly Cloudy 42 5.7 22 -5.6 44 44 N 13 20 30.01 1016 10 16 0.00 0.00
8:58 pm 20:58 Mostly Cloudy 39 4.1 23 -5.1 52 52 N 13 20 30.05 1018 10 16 0.00 0.00
9:58 pm 21:58 Cloudy 38 3.5 24 -4.2 57 57 N 10 17 30.07 1018 10 16 0.00 0.00
10:58 pm 22:58 Cloudy 37 2.9 27 -2.8 66 66 N 12 19 30.11 1020 10 16 0.00 0.00
11:58 pm 23:58 Mostly Cloudy 35 1.8 27 -2.9 71 71 NNW 12 19 30.11 1020 10 16 0.00 0.00

Powered by AerisWeather